Other Surface Observations
Issued by NWS Tucson, AZ

Home | Current Version | Previous Version | Text Only | Print | Product List | Glossary On
Versions: 1 2 3 4 5 6 7 8 9 10 11 12 13 14 15 16 17 18 19 20 21 22 23 24 25 26 27 28 29 30 31 32 33 34 35 36 37 38 39 40 41 42 43 44 45 46 47 48 49 50
442
SXUS55 KTWC 220115
OSOTWC

WEATHER ROUNDUP FOR SOUTHEAST ARIZONA
NATIONAL WEATHER SERVICE TUCSON AZ
615 PM MST SAT JAN 21 2017

AZZ504>506-514-220215-
LOCATION       SKY/WX    TMP DP  RH WIND       PRES   REMARKS
TUCSON         PTCLDY    52  27  38 W9        29.97R
DAVIS-MONTHAN  PTCLDY    51  29  42 W13       29.96R
CHILDRENS PARK N/A      N/A N/A  36 W10               PIMA CO DEQ
ALVERNON/22ND  N/A       55 N/A N/A W11               PIMA CO DEQ
CHERRY/GLENN   N/A      N/A N/A N/A N/A               PIMA CO DEQ
TANGERINE      N/A       54 N/A N/A W12               PIMA CO DEQ
CONTL RANCH    N/A       54  28  37 W11               PIMA CO DEQ
GRANT/1ST      N/A       55  28  35 W12               PIMA CO DEQ
CRAYCROFT/22ND N/A       54  28  36 N/A               PIMA CO DEQ
GOLFLINKS/KOLB N/A       54  27  35 W12               PIMA CO DEQ
AJO/12TH       N/A       54  28  37 W12               PIMA CO DEQ
FAIRGROUNDS    N/A       52 N/A N/A W18               PIMA CO DEQ
SAGUARO        N/A       52  28  40 NW11G23           *SABINO CYN
SAN CARLOS     N/A       49  33  54 W10G19            *SAN CARLOS
GREEN VALLEY   N/A       53  26  35 SW12              PIMA CO DEQ
HORSE CAMP CYN N/A       42  30  63 W20G31            *ARAVAIPA CYN
RINCON MTNS    NOT AVBL
$$

AZZ509>511-220215-
LOCATION       SKY/WX    TMP DP  RH WIND       PRES   REMARKS
SAFFORD        PTCLDY    44  32  62 NW9       29.89R
STRAY HORSE    N/A       23  22  96 N/A               *
TRAIL CABIN    NOT AVBL
BLACK HILLS    NOT AVBL
DRY LAKE       N/A       25  25  100 W7G14            *NATANES MTNS
NOON CREEK     NOT AVBL
COLUMBINE      NOT AVBL
GUTHRIE        N/A       28  28  100 W25G51           *SW OF GUTHRIE
$$

AZZ502-503-513-220215-
LOCATION       SKY/WX    TMP DP  RH WIND       PRES   REMARKS
NOGALES        FAIR      46  25  43 W9        29.98R
SELLS          N/A       54  31  42 NE7G15            *
SASABE         N/A       51  30  44 W10G19            *ALTAR VLY
HOPKINS        N/A       30  28  93 W11G20            *SANTA RITA MTNS
CARR CYN       N/A       37  23  56 N3G10             *W OF HEREFORD
$$

AZZ507-508-512-220215-
LOCATION       SKY/WX    TMP DP  RH WIND       PRES   REMARKS
SIERRA VISTA   PTCLDY    42  24  50 W21G26    29.95R
DOUGLAS        PTCLDY    44  24  45 NW15      29.95R
EMPIRE MTNS    NOT AVBL
MULESHOE RANCH N/A       43  25  49 NW15G28           *PRESERVE
HEADQUARTERS   NOT AVBL
$$

.............................NOTES.............................
THIS IS AN AUTOMATED COLLECTIVE WITH MINIMAL QUALITY CONTROL.
PIMA CO DEQ SITES HAVE NONSTANDARD WIND SENSOR HEIGHTS.
PIMA CO DEQ SITES DO NOT REPORT WIND GUSTS.
* INDICATES WIND SENSORS LOCATED AT 20 FEET INSTEAD OF 33 FEET.
..............................KEY..............................
SKY/WX - SKY CONDITION/WEATHER
TMP    - TEMPERATURE IN FAHRENHEIT
DP     - DEWPOINT IN FAHRENHEIT
RH     - RELATIVE HUMIDITY IN PERCENT
WIND   - DIRECTION AND SPEED IN MILES PER HOUR (MPH)
VRB    - VARIABLE WIND DIRECTION
PRES   - MEAN SEA LEVEL PRESSURE IN INCHES OF MERCURY
         F - FALLING PRESSURE   R - RISING PRESSURE
         S - STEADY PRESSURE
VSB    - VISIBILITY IN MILES
HX     - HEAT INDEX IN FAHRENHEIT
WCI    - WIND CHILL INDEX IN FAHRENHEIT
N/A    - NOT AVAILABLE
AFB    - AIR FORCE BASE
         DAVIS-MONTHAN IS DAVIS-MONTHAN AIR FORCE BASE
CYN    - CANYON
MTNS   - MOUNTAINS
NCA    - NATIONAL CONSERVATION AREA
NR     - NEAR
VLY    - VALLEY
CONTL  - CONTINENTAL
PIMA CO DEQ - PIMA COUNTY DEPT OF ENVIRONMENTAL QUALITY



USA.gov is the U.S. government's official web portal to all federal, state and local government web resources and services.